Time,TemperatureF,DewpointF,PressureIn,WindDirection,WindDirectionDegrees,WindSpeedMPH,WindSpeedGustMPH,Humidity,HourlyPrecipIn,Conditions,Clouds,dailyrainin,SoftwareType,DateUTC
2013-03-28 00:00:00,39.3,32.4,30.07,NNW,339,0.0,0.0,76,0.00,,,0.00,Wunderground v.1.15,2013-03-28 04:00:00,
2013-03-28 00:01:00,39.3,32.4,30.07,NNW,339,0.0,0.0,76,0.00,,,0.00,Wunderground v.1.15,2013-03-28 04:01:00,
2013-03-28 00:02:00,39.3,32.4,30.07,NNW,339,0.0,0.0,76,0.00,,,0.00,Wunderground v.1.15,2013-03-28 04:02:00,
2013-03-28 00:07:00,39.2,32.6,30.07,NNW,339,0.0,0.0,77,0.00,,,0.00,Wunderground v.1.15,2013-03-28 04:07:00,
2013-03-28 00:13:00,39.1,32.5,30.07,NNW,339,0.0,0.0,77,0.00,,,0.00,Wunderground v.1.15,2013-03-28 04:13:00,
2013-03-28 00:16:00,38.9,32.3,30.07,NNW,339,0.0,0.0,77,0.00,,,0.00,Wunderground v.1.15,2013-03-28 04:16:00,
2013-03-28 00:21:00,38.9,32.6,30.07,NNW,339,0.0,0.0,78,0.00,,,0.00,Wunderground v.1.15,2013-03-28 04:21:00,
2013-03-28 00:26:00,38.8,32.8,30.07,NNW,339,0.0,0.0,79,0.00,,,0.00,Wunderground v.1.15,2013-03-28 04:26:00,
2013-03-28 00:31:00,38.6,32.6,30.07,NNW,339,0.0,0.0,79,0.00,,,0.00,Wunderground v.1.15,2013-03-28 04:31:00,
2013-03-28 00:37:00,38.3,32.4,30.07,NNW,339,0.0,0.0,79,0.00,,,0.00,Wunderground v.1.15,2013-03-28 04:37:00,
2013-03-28 00:43:00,38.2,32.6,30.07,NNW,339,0.0,0.0,80,0.00,,,0.00,Wunderground v.1.15,2013-03-28 04:43:00,
2013-03-28 00:49:00,38.0,32.4,30.07,NNW,339,0.0,0.0,80,0.00,,,0.00,Wunderground v.1.15,2013-03-28 04:49:00,
2013-03-28 00:54:00,37.9,32.6,30.07,NNW,339,0.0,0.0,81,0.00,,,0.00,Wunderground v.1.15,2013-03-28 04:54:00,
2013-03-28 01:00:00,37.8,32.5,30.07,NNW,339,0.0,0.0,81,0.00,,,0.00,Wunderground v.1.15,2013-03-28 05:00:00,
2013-03-28 01:05:00,37.6,32.6,30.07,NNW,339,0.0,0.0,82,0.00,,,0.00,Wunderground v.1.15,2013-03-28 05:05:00,
2013-03-28 01:10:00,37.6,32.6,30.07,NNW,339,0.0,0.0,82,0.00,,,0.00,Wunderground v.1.15,2013-03-28 05:10:00,
2013-03-28 01:15:00,37.5,32.5,30.08,NNW,339,0.0,0.0,82,0.00,,,0.00,Wunderground v.1.15,2013-03-28 05:15:00,
2013-03-28 01:21:00,37.3,32.6,30.08,NNW,339,0.0,0.0,83,0.00,,,0.00,Wunderground v.1.15,2013-03-28 05:21:00,
2013-03-28 01:26:00,37.3,32.9,30.08,NNW,339,0.0,0.0,84,0.00,,,0.00,Wunderground v.1.15,2013-03-28 05:26:00,
2013-03-28 01:32:00,37.3,32.9,30.08,NNW,339,0.0,0.0,84,0.00,,,0.00,Wunderground v.1.15,2013-03-28 05:32:00,
2013-03-28 01:38:00,37.2,32.8,30.08,NNW,339,0.0,0.0,84,0.00,,,0.00,Wunderground v.1.15,2013-03-28 05:38:00,
2013-03-28 01:44:00,37.0,32.3,30.08,NNW,339,0.0,0.0,83,0.00,,,0.00,Wunderground v.1.15,2013-03-28 05:44:00,
2013-03-28 01:49:00,37.0,32.0,30.08,NNW,339,0.0,0.0,82,0.00,,,0.00,Wunderground v.1.15,2013-03-28 05:49:00,
2013-03-28 01:54:00,36.9,31.9,30.08,NNW,339,0.0,0.0,82,0.00,,,0.00,Wunderground v.1.15,2013-03-28 05:54:00,
2013-03-28 02:00:00,36.9,31.3,30.08,NNW,344,0.0,0.0,80,0.00,,,0.00,Wunderground v.1.15,2013-03-28 06:00:00,
2013-03-28 02:05:00,36.9,31.0,30.08,NNW,344,0.0,0.0,79,0.00,,,0.00,Wunderground v.1.15,2013-03-28 06:05:00,
2013-03-28 02:11:00,36.9,31.0,30.08,NNW,344,0.0,0.0,79,0.00,,,0.00,Wunderground v.1.15,2013-03-28 06:11:00,
2013-03-28 02:16:00,36.9,30.7,30.08,NNW,344,0.0,0.0,78,0.00,,,0.00,Wunderground v.1.15,2013-03-28 06:16:00,
2013-03-28 02:22:00,36.9,30.4,30.08,NNW,344,0.0,0.0,77,0.00,,,0.00,Wunderground v.1.15,2013-03-28 06:22:00,
2013-03-28 02:27:00,36.9,30.0,30.08,NNW,344,0.0,0.0,76,0.00,,,0.00,Wunderground v.1.15,2013-03-28 06:27:00,
2013-03-28 02:32:00,36.8,29.6,30.08,NNW,344,0.0,0.0,75,0.00,,,0.00,Wunderground v.1.15,2013-03-28 06:32:00,
2013-03-28 02:38:00,36.8,29.6,30.08,NNW,344,0.0,1.0,75,0.00,,,0.00,Wunderground v.1.15,2013-03-28 06:38:00,
2013-03-28 02:43:00,36.9,29.4,30.08,NNW,344,0.0,1.0,74,0.00,,,0.00,Wunderground v.1.15,2013-03-28 06:43:00,
2013-03-28 02:48:00,36.9,29.1,30.08,NNW,344,0.0,1.0,73,0.00,,,0.00,Wunderground v.1.15,2013-03-28 06:48:00,
2013-03-28 02:53:00,36.9,29.1,30.08,NNW,344,0.0,1.0,73,0.00,,,0.00,Wunderground v.1.15,2013-03-28 06:53:00,
2013-03-28 02:59:00,36.9,29.1,30.08,NNW,344,0.0,1.0,73,0.00,,,0.00,Wunderground v.1.15,2013-03-28 06:59:00,
2013-03-28 03:04:00,36.9,29.1,30.08,NNW,344,0.0,1.0,73,0.00,,,0.00,Wunderground v.1.15,2013-03-28 07:04:00,
2013-03-28 03:10:00,36.9,29.4,30.08,NNW,344,0.0,1.0,74,0.00,,,0.00,Wunderground v.1.15,2013-03-28 07:10:00,
2013-03-28 03:15:00,36.9,29.4,30.08,NNW,344,0.0,1.0,74,0.00,,,0.00,Wunderground v.1.15,2013-03-28 07:15:00,
2013-03-28 03:22:00,36.8,29.0,30.08,NNW,344,0.0,1.0,73,0.00,,,0.00,Wunderground v.1.15,2013-03-28 07:22:00,
2013-03-28 03:27:00,36.8,28.6,30.08,NNW,344,0.0,1.0,72,0.00,,,0.00,Wunderground v.1.15,2013-03-28 07:27:00,
2013-03-28 03:32:00,36.8,28.6,30.08,NNW,344,0.0,1.0,72,0.00,,,0.00,Wunderground v.1.15,2013-03-28 07:32:00,
2013-03-28 03:37:00,36.8,28.6,30.08,NNW,344,0.0,1.0,72,0.00,,,0.00,Wunderground v.1.15,2013-03-28 07:37:00,
2013-03-28 03:42:00,36.6,28.4,30.08,NNW,344,0.0,0.0,72,0.00,,,0.00,Wunderground v.1.15,2013-03-28 07:42:00,
2013-03-28 03:47:00,36.6,28.1,30.07,NNW,344,0.0,0.0,71,0.00,,,0.00,Wunderground v.1.15,2013-03-28 07:47:00,
2013-03-28 03:52:00,36.5,27.6,30.07,NNW,344,0.0,0.0,70,0.00,,,0.00,Wunderground v.1.15,2013-03-28 07:52:00,
2013-03-28 03:58:00,36.5,27.6,30.07,NNW,344,0.0,0.0,70,0.00,,,0.00,Wunderground v.1.15,2013-03-28 07:58:00,
2013-03-28 04:03:00,36.3,27.4,30.07,NNW,344,0.0,3.0,70,0.00,,,0.00,Wunderground v.1.15,2013-03-28 08:03:00,
2013-03-28 04:09:00,36.3,27.4,30.07,NNW,344,0.0,3.0,70,0.00,,,0.00,Wunderground v.1.15,2013-03-28 08:09:00,
2013-03-28 04:15:00,36.2,27.7,30.07,NNW,344,0.0,3.0,71,0.00,,,0.00,Wunderground v.1.15,2013-03-28 08:15:00,
2013-03-28 04:21:00,36.2,28.0,30.07,NNW,344,0.0,3.0,72,0.00,,,0.00,Wunderground v.1.15,2013-03-28 08:21:00,
2013-03-28 04:27:00,36.0,28.2,30.07,NNW,344,0.0,3.0,73,0.00,,,0.00,Wunderground v.1.15,2013-03-28 08:27:00,
2013-03-28 04:33:00,35.9,28.1,30.07,NNW,344,0.0,3.0,73,0.00,,,0.00,Wunderground v.1.15,2013-03-28 08:33:00,
2013-03-28 04:38:00,35.8,28.6,30.07,NNW,344,0.0,3.0,75,0.00,,,0.00,Wunderground v.1.15,2013-03-28 08:38:00,
2013-03-28 04:44:00,35.6,28.5,30.07,NNW,344,0.0,0.0,75,0.00,,,0.00,Wunderground v.1.15,2013-03-28 08:44:00,
2013-03-28 04:49:00,35.5,28.7,30.07,NNW,344,0.0,0.0,76,0.00,,,0.00,Wunderground v.1.15,2013-03-28 08:49:00,
2013-03-28 04:54:00,35.3,28.5,30.07,NNW,344,0.0,0.0,76,0.00,,,0.00,Wunderground v.1.15,2013-03-28 08:54:00,
2013-03-28 04:59:00,35.2,28.1,30.07,NNW,344,0.0,0.0,75,0.00,,,0.00,Wunderground v.1.15,2013-03-28 08:59:00,
2013-03-28 05:04:00,35.2,28.1,30.07,NNW,344,0.0,0.0,75,0.00,,,0.00,Wunderground v.1.15,2013-03-28 09:04:00,
2013-03-28 05:09:00,35.2,27.7,30.07,NNW,344,0.0,0.0,74,0.00,,,0.00,Wunderground v.1.15,2013-03-28 09:09:00,
2013-03-28 05:14:00,35.2,27.7,30.07,NNW,344,0.0,0.0,74,0.00,,,0.00,Wunderground v.1.15,2013-03-28 09:14:00,
2013-03-28 05:20:00,35.3,27.5,30.07,NNW,344,0.0,0.0,73,0.00,,,0.00,Wunderground v.1.15,2013-03-28 09:20:00,
2013-03-28 05:25:00,35.3,27.2,30.07,NNW,344,0.0,0.0,72,0.00,,,0.00,Wunderground v.1.15,2013-03-28 09:25:00,
2013-03-28 05:30:00,35.3,27.2,30.08,NNW,344,0.0,0.0,72,0.00,,,0.00,Wunderground v.1.15,2013-03-28 09:30:00,
2013-03-28 05:35:00,35.3,27.5,30.08,NNW,344,0.0,1.0,73,0.00,,,0.00,Wunderground v.1.15,2013-03-28 09:35:00,
2013-03-28 05:40:00,35.2,27.7,30.08,NNW,344,0.0,1.0,74,0.00,,,0.00,Wunderground v.1.15,2013-03-28 09:40:00,
2013-03-28 05:45:00,35.0,27.9,30.08,NNW,344,0.0,1.0,75,0.00,,,0.00,Wunderground v.1.15,2013-03-28 09:45:00,
2013-03-28 05:50:00,34.9,27.8,30.08,NNW,344,0.0,1.0,75,0.00,,,0.00,Wunderground v.1.15,2013-03-28 09:50:00,
2013-03-28 05:55:00,34.6,27.8,30.08,NNW,344,0.0,1.0,76,0.00,,,0.00,Wunderground v.1.15,2013-03-28 09:55:00,
2013-03-28 06:01:00,34.3,27.8,30.08,NNW,344,0.0,1.0,77,0.00,,,0.00,Wunderground v.1.15,2013-03-28 10:01:00,
2013-03-28 06:07:00,34.0,27.9,30.08,NNW,344,0.0,1.0,78,0.00,,,0.00,Wunderground v.1.15,2013-03-28 10:07:00,
2013-03-28 06:13:00,33.8,28.0,30.08,NNW,344,0.0,0.0,79,0.00,,,0.00,Wunderground v.1.15,2013-03-28 10:13:00,
2013-03-28 06:18:00,33.7,27.9,30.08,NNW,344,0.0,0.0,79,0.00,,,0.00,Wunderground v.1.15,2013-03-28 10:18:00,
2013-03-28 06:23:00,33.5,27.7,30.08,NNW,344,0.0,0.0,79,0.00,,,0.00,Wunderground v.1.15,2013-03-28 10:23:00,
2013-03-28 06:28:00,33.4,27.9,30.08,NNW,344,0.0,0.0,80,0.00,,,0.00,Wunderground v.1.15,2013-03-28 10:28:00,
2013-03-28 06:34:00,33.1,27.9,30.09,NNW,344,0.0,0.0,81,0.00,,,0.00,Wunderground v.1.15,2013-03-28 10:34:00,
2013-03-28 06:39:00,32.9,27.7,30.09,NNW,344,0.0,0.0,81,0.00,,,0.00,Wunderground v.1.15,2013-03-28 10:39:00,
2013-03-28 06:44:00,32.9,27.7,30.09,NNW,344,0.0,0.0,81,0.00,,,0.00,Wunderground v.1.15,2013-03-28 10:44:00,
2013-03-28 06:49:00,32.8,27.6,30.09,NNW,344,0.0,0.0,81,0.00,,,0.00,Wunderground v.1.15,2013-03-28 10:49:00,
2013-03-28 06:54:00,32.7,27.5,30.09,NNW,344,0.0,0.0,81,0.00,,,0.00,Wunderground v.1.15,2013-03-28 10:54:00,
2013-03-28 06:59:00,32.7,27.5,30.10,NNW,344,0.0,0.0,81,0.00,,,0.00,Wunderground v.1.15,2013-03-28 10:59:00,
2013-03-28 07:05:00,32.5,27.3,30.10,NNW,344,0.0,0.0,81,0.00,,,0.00,Wunderground v.1.15,2013-03-28 11:05:00,
2013-03-28 07:10:00,32.5,27.6,30.10,NNW,344,0.0,0.0,82,0.00,,,0.00,Wunderground v.1.15,2013-03-28 11:10:00,
2013-03-28 07:15:00,32.4,27.5,30.10,NNW,344,0.0,0.0,82,0.00,,,0.00,Wunderground v.1.15,2013-03-28 11:15:00,
2013-03-28 07:21:00,32.2,27.3,30.10,NNW,344,0.0,0.0,82,0.00,,,0.00,Wunderground v.1.15,2013-03-28 11:21:00,
2013-03-28 07:26:00,32.2,27.6,30.10,NNW,344,0.0,0.0,83,0.00,,,0.00,Wunderground v.1.15,2013-03-28 11:26:00,
2013-03-28 07:31:00,32.2,27.6,30.11,NNW,344,0.0,0.0,83,0.00,,,0.00,Wunderground v.1.15,2013-03-28 11:31:00,
2013-03-28 07:37:00,32.2,27.6,30.11,NNW,344,0.0,0.0,83,0.00,,,0.00,Wunderground v.1.15,2013-03-28 11:37:00,
2013-03-28 07:42:00,32.2,27.6,30.11,NNW,344,0.0,0.0,83,0.00,,,0.00,Wunderground v.1.15,2013-03-28 11:42:00,
2013-03-28 07:47:00,32.4,27.5,30.11,NNW,344,0.0,0.0,82,0.00,,,0.00,Wunderground v.1.15,2013-03-28 11:47:00,
2013-03-28 07:52:00,32.8,27.9,30.11,NNW,344,0.0,0.0,82,0.00,,,0.00,Wunderground v.1.15,2013-03-28 11:52:00,
2013-03-28 07:57:00,33.4,27.6,30.11,NNW,344,0.0,0.0,79,0.00,,,0.00,Wunderground v.1.15,2013-03-28 11:57:00,
2013-03-28 08:03:00,34.0,27.5,30.11,NNW,344,0.0,0.0,77,0.00,,,0.00,Wunderground v.1.15,2013-03-28 12:03:00,
2013-03-28 08:08:00,34.6,27.5,30.11,NNW,344,0.0,1.0,75,0.00,,,0.00,Wunderground v.1.15,2013-03-28 12:08:00,
2013-03-28 08:13:00,35.2,27.4,30.11,NNW,344,0.0,2.0,73,0.00,,,0.00,Wunderground v.1.15,2013-03-28 12:13:00,
2013-03-28 08:19:00,35.9,27.4,30.11,NNW,344,1.0,3.0,71,0.00,,,0.00,Wunderground v.1.15,2013-03-28 12:19:00,
2013-03-28 08:24:00,36.5,27.3,30.11,NNW,344,2.0,2.0,69,0.00,,,0.00,Wunderground v.1.15,2013-03-28 12:24:00,
2013-03-28 08:29:00,36.9,27.3,30.12,NNW,344,2.0,3.0,68,0.00,,,0.00,Wunderground v.1.15,2013-03-28 12:29:00,
2013-03-28 08:35:00,37.5,27.2,30.12,NNW,344,2.0,3.0,66,0.00,,,0.00,Wunderground v.1.15,2013-03-28 12:35:00,
2013-03-28 08:41:00,37.9,27.2,30.12,NNE,20,2.0,5.0,65,0.00,,,0.00,Wunderground v.1.15,2013-03-28 12:41:00,
2013-03-28 08:46:00,38.5,27.4,30.12,NNW,338,2.0,3.0,64,0.00,,,0.00,Wunderground v.1.15,2013-03-28 12:46:00,
2013-03-28 08:51:00,39.1,27.6,30.12,NE,49,2.0,5.0,63,0.00,,,0.00,Wunderground v.1.15,2013-03-28 12:51:00,
2013-03-28 08:57:00,39.8,27.8,30.12,NE,49,1.0,3.0,62,0.00,,,0.00,Wunderground v.1.15,2013-03-28 12:57:00,
2013-03-28 09:02:00,40.3,27.5,30.12,NE,40,1.0,3.0,60,0.00,,,0.00,Wunderground v.1.15,2013-03-28 13:02:00,
2013-03-28 09:07:00,41.2,29.2,30.12,NE,40,1.0,7.0,62,0.00,,,0.00,Wunderground v.1.15,2013-03-28 13:07:00,
2013-03-28 09:13:00,41.8,28.1,30.12,NNE,19,1.0,7.0,58,0.00,,,0.00,Wunderground v.1.15,2013-03-28 13:13:00,
2013-03-28 09:18:00,42.5,28.3,30.12,East,95,2.0,7.0,57,0.00,,,0.00,Wunderground v.1.15,2013-03-28 13:18:00,
2013-03-28 09:23:00,43.1,27.6,30.12,ENE,72,2.0,7.0,54,0.00,,,0.00,Wunderground v.1.15,2013-03-28 13:23:00,
2013-03-28 09:28:00,43.8,28.7,30.12,NE,38,2.0,7.0,55,0.00,,,0.00,Wunderground v.1.15,2013-03-28 13:28:00,
2013-03-28 09:34:00,44.6,28.0,30.12,NNE,17,2.0,7.0,52,0.00,,,0.00,Wunderground v.1.15,2013-03-28 13:34:00,
2013-03-28 09:39:00,44.9,26.9,30.12,NNW,348,1.0,7.0,49,0.00,,,0.00,Wunderground v.1.15,2013-03-28 13:39:00,
2013-03-28 09:44:00,45.1,27.1,30.12,NNW,346,3.0,5.0,49,0.00,,,0.00,Wunderground v.1.15,2013-03-28 13:44:00,
2013-03-28 09:50:00,45.1,27.1,30.12,North,349,4.0,5.0,49,0.00,,,0.00,Wunderground v.1.15,2013-03-28 13:50:00,
2013-03-28 09:55:00,45.5,26.4,30.12,NNW,347,3.0,5.0,47,0.00,,,0.00,Wunderground v.1.15,2013-03-28 13:55:00,
2013-03-28 10:00:00,45.8,25.6,30.12,NNW,336,3.0,5.0,45,0.00,,,0.00,Wunderground v.1.15,2013-03-28 14:00:00,
2013-03-28 10:05:00,46.0,25.8,30.12,NNW,329,3.0,7.0,45,0.00,,,0.00,Wunderground v.1.15,2013-03-28 14:05:00,
2013-03-28 10:11:00,45.8,25.6,30.12,NW,321,5.0,10.0,45,0.00,,,0.00,Wunderground v.1.15,2013-03-28 14:11:00,
2013-03-28 10:16:00,46.2,27.1,30.12,NNW,344,5.0,7.0,47,0.00,,,0.00,Wunderground v.1.15,2013-03-28 14:16:00,
2013-03-28 10:22:00,47.3,26.5,30.12,NNE,18,3.0,3.0,44,0.00,,,0.00,Wunderground v.1.15,2013-03-28 14:22:00,
2013-03-28 10:27:00,47.6,25.6,30.12,NNW,345,3.0,7.0,42,0.00,,,0.00,Wunderground v.1.15,2013-03-28 14:27:00,
2013-03-28 10:32:00,47.7,26.3,30.12,NNW,347,4.0,10.0,43,0.00,,,0.00,Wunderground v.1.15,2013-03-28 14:32:00,
2013-03-28 10:38:00,47.6,25.6,30.12,North,360,5.0,11.0,42,0.00,,,0.00,Wunderground v.1.15,2013-03-28 14:38:00,
2013-03-28 10:43:00,47.7,26.8,30.12,NE,56,4.0,6.0,44,0.00,,,0.00,Wunderground v.1.15,2013-03-28 14:43:00,
2013-03-28 10:49:00,48.0,24.8,30.12,NW,323,3.0,11.0,40,0.00,,,0.00,Wunderground v.1.15,2013-03-28 14:49:00,
2013-03-28 10:54:00,48.0,24.2,30.12,NNW,331,4.0,11.0,39,0.00,,,0.00,Wunderground v.1.15,2013-03-28 14:54:00,
2013-03-28 10:59:00,48.0,25.4,30.12,ENE,59,4.0,11.0,41,0.00,,,0.00,Wunderground v.1.15,2013-03-28 14:59:00,
2013-03-28 11:05:00,48.5,24.6,30.12,NNW,348,3.0,11.0,39,0.00,,,0.00,Wunderground v.1.15,2013-03-28 15:05:00,
2013-03-28 11:10:00,48.9,24.4,30.12,NNE,27,3.0,11.0,38,0.00,,,0.00,Wunderground v.1.15,2013-03-28 15:10:00,
2013-03-28 11:15:00,48.8,24.9,30.12,NNW,332,4.0,11.0,39,0.00,,,0.00,Wunderground v.1.15,2013-03-28 15:15:00,
2013-03-28 11:21:00,48.8,24.3,30.12,NNW,333,5.0,11.0,38,0.00,,,0.00,Wunderground v.1.15,2013-03-28 15:21:00,
2013-03-28 11:26:00,48.6,22.8,30.12,NNW,331,5.0,11.0,36,0.00,,,0.00,Wunderground v.1.15,2013-03-28 15:26:00,
2013-03-28 11:31:00,49.1,23.3,30.12,North,355,6.0,11.0,36,0.00,,,0.00,Wunderground v.1.15,2013-03-28 15:31:00,
2013-03-28 11:38:00,49.8,23.2,30.12,NNW,332,3.0,11.0,35,0.00,,,0.00,Wunderground v.1.15,2013-03-28 15:38:00,
2013-03-28 11:43:00,49.9,23.3,30.12,NE,43,3.0,11.0,35,0.00,,,0.00,Wunderground v.1.15,2013-03-28 15:43:00,
2013-03-28 11:49:00,50.5,26.4,30.11,ENE,65,5.0,11.0,39,0.00,,,0.00,Wunderground v.1.15,2013-03-28 15:49:00,
2013-03-28 11:54:00,51.0,22.9,30.11,NNW,329,4.0,11.0,33,0.00,,,0.00,Wunderground v.1.15,2013-03-28 15:54:00,
2013-03-28 11:59:00,51.4,24.6,30.11,NE,49,2.0,11.0,35,0.00,,,0.00,Wunderground v.1.15,2013-03-28 15:59:00,
2013-03-28 12:04:00,51.6,23.4,30.11,WNW,291,3.0,12.0,33,0.00,,,0.00,Wunderground v.1.15,2013-03-28 16:04:00,
2013-03-28 12:09:00,51.1,23.7,30.11,WNW,300,4.0,12.0,34,0.00,,,0.00,Wunderground v.1.15,2013-03-28 16:09:00,
2013-03-28 12:15:00,51.1,23.0,30.10,NW,304,5.0,12.0,33,0.00,,,0.00,Wunderground v.1.15,2013-03-28 16:15:00,
2013-03-28 12:20:00,51.4,21.7,30.10,NW,317,5.0,12.0,31,0.00,,,0.00,Wunderground v.1.15,2013-03-28 16:20:00,
2013-03-28 12:26:00,51.3,21.6,30.10,NW,325,5.0,12.0,31,0.00,,,0.00,Wunderground v.1.15,2013-03-28 16:26:00,
2013-03-28 12:31:00,51.1,23.0,30.09,North,355,7.0,12.0,33,0.00,,,0.00,Wunderground v.1.15,2013-03-28 16:31:00,
2013-03-28 12:37:00,51.3,23.1,30.09,NNW,331,7.0,13.0,33,0.00,,,0.00,Wunderground v.1.15,2013-03-28 16:37:00,
2013-03-28 12:42:00,51.6,22.7,30.09,NNW,348,5.0,5.0,32,0.00,,,0.00,Wunderground v.1.15,2013-03-28 16:42:00,
2013-03-28 12:48:00,51.9,22.9,30.09,WNW,296,5.0,13.0,32,0.00,,,0.00,Wunderground v.1.15,2013-03-28 16:48:00,
2013-03-28 12:53:00,52.0,23.0,30.09,North,355,5.0,13.0,32,0.00,,,0.00,Wunderground v.1.15,2013-03-28 16:53:00,
2013-03-28 12:58:00,52.0,23.0,30.09,NNW,338,5.0,13.0,32,0.00,,,0.00,Wunderground v.1.15,2013-03-28 16:58:00,
2013-03-28 13:03:00,52.3,25.4,30.09,NNW,338,4.0,13.0,35,0.00,,,0.00,Wunderground v.1.15,2013-03-28 17:03:00,
2013-03-28 13:09:00,53.2,21.7,30.09,North,360,4.0,13.0,29,0.00,,,0.00,Wunderground v.1.15,2013-03-28 17:09:00,
2013-03-28 13:15:00,53.2,20.9,30.08,NW,324,4.0,11.0,28,0.00,,,0.00,Wunderground v.1.15,2013-03-28 17:15:00,
2013-03-28 13:20:00,52.8,23.0,30.08,NNE,13,5.0,11.0,31,0.00,,,0.00,Wunderground v.1.15,2013-03-28 17:20:00,
2013-03-28 13:25:00,53.5,25.1,30.08,North,360,4.0,11.0,33,0.00,,,0.00,Wunderground v.1.15,2013-03-28 17:25:00,
2013-03-28 13:30:00,53.6,21.2,30.08,NNW,329,4.0,11.0,28,0.00,,,0.00,Wunderground v.1.15,2013-03-28 17:30:00,
2013-03-28 13:35:00,53.8,23.1,30.08,North,5,4.0,7.0,30,0.00,,,0.00,Wunderground v.1.15,2013-03-28 17:35:00,
2013-03-28 13:40:00,54.2,21.8,30.08,NW,305,4.0,12.0,28,0.00,,,0.00,Wunderground v.1.15,2013-03-28 17:40:00,
2013-03-28 13:45:00,54.7,21.3,30.07,WNW,298,4.0,12.0,27,0.00,,,0.00,Wunderground v.1.15,2013-03-28 17:45:00,
2013-03-28 13:50:00,54.2,21.8,30.07,NW,308,6.0,13.0,28,0.00,,,0.00,Wunderground v.1.15,2013-03-28 17:50:00,
2013-03-28 13:55:00,53.8,20.6,30.07,NNW,331,8.0,12.0,27,0.00,,,0.00,Wunderground v.1.15,2013-03-28 17:55:00,
2013-03-28 14:01:00,53.6,20.4,30.07,NNW,346,7.0,12.0,27,0.00,,,0.00,Wunderground v.1.15,2013-03-28 18:01:00,
2013-03-28 14:06:00,54.4,21.9,30.07,NNW,336,5.0,12.0,28,0.00,,,0.00,Wunderground v.1.15,2013-03-28 18:06:00,
2013-03-28 14:12:00,54.7,23.0,30.07,NNE,23,5.0,12.0,29,0.00,,,0.00,Wunderground v.1.15,2013-03-28 18:12:00,
2013-03-28 14:17:00,55.9,23.2,30.06,NNW,333,4.0,12.0,28,0.00,,,0.00,Wunderground v.1.15,2013-03-28 18:17:00,
2013-03-28 14:22:00,55.9,22.4,30.06,NNE,19,5.0,5.0,27,0.00,,,0.00,Wunderground v.1.15,2013-03-28 18:22:00,
2013-03-28 14:27:00,55.6,22.1,30.06,NNW,339,6.0,12.0,27,0.00,,,0.00,Wunderground v.1.15,2013-03-28 18:27:00,
2013-03-28 14:33:00,55.9,22.4,30.05,ENE,63,6.0,12.0,27,0.00,,,0.00,Wunderground v.1.15,2013-03-28 18:33:00,
2013-03-28 14:39:00,56.0,22.4,30.05,North,9,4.0,14.0,27,0.00,,,0.00,Wunderground v.1.15,2013-03-28 18:39:00,
2013-03-28 14:44:00,56.3,23.6,30.05,NW,304,4.0,14.0,28,0.00,,,0.00,Wunderground v.1.15,2013-03-28 18:44:00,
2013-03-28 14:50:00,56.3,22.7,30.05,NNW,336,5.0,14.0,27,0.00,,,0.00,Wunderground v.1.15,2013-03-28 18:50:00,
2013-03-28 14:55:00,56.0,24.2,30.05,NNW,343,6.0,14.0,29,0.00,,,0.00,Wunderground v.1.15,2013-03-28 18:55:00,
2013-03-28 15:01:00,55.9,23.2,30.04,NNW,336,6.0,14.0,28,0.00,,,0.00,Wunderground v.1.15,2013-03-28 19:01:00,
2013-03-28 15:06:00,56.2,23.5,30.04,NNW,333,6.0,14.0,28,0.00,,,0.00,Wunderground v.1.15,2013-03-28 19:06:00,
2013-03-28 15:12:00,56.2,22.6,30.04,North,355,5.0,5.0,27,0.00,,,0.00,Wunderground v.1.15,2013-03-28 19:12:00,
2013-03-28 15:18:00,56.3,22.7,30.04,North,355,5.0,14.0,27,0.00,,,0.00,Wunderground v.1.15,2013-03-28 19:18:00,
2013-03-28 15:23:00,56.3,21.8,30.04,NNW,335,4.0,6.0,26,0.00,,,0.00,Wunderground v.1.15,2013-03-28 19:23:00,
2013-03-28 15:29:00,56.3,22.7,30.03,NW,325,5.0,14.0,27,0.00,,,0.00,Wunderground v.1.15,2013-03-28 19:29:00,
2013-03-28 15:34:00,56.9,23.2,30.03,North,355,5.0,15.0,27,0.00,,,0.00,Wunderground v.1.15,2013-03-28 19:34:00,
2013-03-28 15:40:00,56.9,23.2,30.03,NNW,329,5.0,15.0,27,0.00,,,0.00,Wunderground v.1.15,2013-03-28 19:40:00,
2013-03-28 15:47:00,57.2,22.6,30.03,NNW,334,4.0,15.0,26,0.00,,,0.00,Wunderground v.1.15,2013-03-28 19:47:00,
2013-03-28 15:52:00,57.2,23.5,30.03,NW,325,4.0,15.0,27,0.00,,,0.00,Wunderground v.1.15,2013-03-28 19:52:00,
2013-03-28 15:57:00,57.3,23.6,30.03,NNW,336,6.0,15.0,27,0.00,,,0.00,Wunderground v.1.15,2013-03-28 19:57:00,
2013-03-28 16:03:00,57.2,23.5,30.03,NNW,329,7.0,12.0,27,0.00,,,0.00,Wunderground v.1.15,2013-03-28 20:03:00,
2013-03-28 16:08:00,56.9,23.2,30.03,West,270,6.0,13.0,27,0.00,,,0.00,Wunderground v.1.15,2013-03-28 20:08:00,
2013-03-28 16:14:00,57.2,24.3,30.02,North,360,5.0,13.0,28,0.00,,,0.00,Wunderground v.1.15,2013-03-28 20:14:00,
2013-03-28 16:19:00,57.3,23.6,30.02,NNW,333,5.0,13.0,27,0.00,,,0.00,Wunderground v.1.15,2013-03-28 20:19:00,
2013-03-28 16:25:00,57.2,23.5,30.02,NNW,342,6.0,13.0,27,0.00,,,0.00,Wunderground v.1.15,2013-03-28 20:25:00,
2013-03-28 16:30:00,57.6,22.9,30.03,NNE,15,6.0,13.0,26,0.00,,,0.00,Wunderground v.1.15,2013-03-28 20:30:00,
2013-03-28 16:36:00,58.4,23.6,30.03,NNW,334,3.0,13.0,26,0.00,,,0.00,Wunderground v.1.15,2013-03-28 20:36:00,
2013-03-28 16:42:00,58.6,23.8,30.03,NNW,342,3.0,13.0,26,0.00,,,0.00,Wunderground v.1.15,2013-03-28 20:42:00,
2013-03-28 16:47:00,58.1,23.3,30.02,NNW,336,5.0,13.0,26,0.00,,,0.00,Wunderground v.1.15,2013-03-28 20:47:00,
2013-03-28 16:53:00,58.3,23.5,30.02,North,350,5.0,13.0,26,0.00,,,0.00,Wunderground v.1.15,2013-03-28 20:53:00,
2013-03-28 16:59:00,58.1,24.3,30.02,NW,323,4.0,13.0,27,0.00,,,0.00,Wunderground v.1.15,2013-03-28 20:59:00,
2013-03-28 17:04:00,58.0,24.2,30.02,NNW,327,5.0,13.0,27,0.00,,,0.00,Wunderground v.1.15,2013-03-28 21:04:00,
2013-03-28 17:10:00,57.8,23.1,30.02,NNW,338,5.0,13.0,26,0.00,,,0.00,Wunderground v.1.15,2013-03-28 21:10:00,
2013-03-28 17:15:00,57.3,22.7,30.02,NW,322,6.0,13.0,26,0.00,,,0.00,Wunderground v.1.15,2013-03-28 21:15:00,
2013-03-28 17:20:00,57.2,22.6,30.02,NW,326,7.0,13.0,26,0.00,,,0.00,Wunderground v.1.15,2013-03-28 21:20:00,
2013-03-28 17:25:00,57.2,24.3,30.02,NNW,334,6.0,13.0,28,0.00,,,0.00,Wunderground v.1.15,2013-03-28 21:25:00,
2013-03-28 17:30:00,57.2,23.5,30.02,NW,304,6.0,13.0,27,0.00,,,0.00,Wunderground v.1.15,2013-03-28 21:30:00,
2013-03-28 17:35:00,57.2,23.5,30.02,NW,304,7.0,14.0,27,0.00,,,0.00,Wunderground v.1.15,2013-03-28 21:35:00,
2013-03-28 17:40:00,57.5,21.9,30.02,NNW,343,6.0,14.0,25,0.00,,,0.00,Wunderground v.1.15,2013-03-28 21:40:00,
2013-03-28 17:46:00,57.8,23.1,30.02,North,349,4.0,14.0,26,0.00,,,0.00,Wunderground v.1.15,2013-03-28 21:46:00,
2013-03-28 17:51:00,57.6,22.9,30.02,NNW,339,6.0,14.0,26,0.00,,,0.00,Wunderground v.1.15,2013-03-28 21:51:00,
2013-03-28 17:56:00,57.3,22.7,30.02,NNE,13,6.0,14.0,26,0.00,,,0.00,Wunderground v.1.15,2013-03-28 21:56:00,
2013-03-28 18:01:00,57.6,22.0,30.01,NNW,333,5.0,14.0,25,0.00,,,0.00,Wunderground v.1.15,2013-03-28 22:01:00,
2013-03-28 18:07:00,57.3,23.6,30.01,NW,318,4.0,16.0,27,0.00,,,0.00,Wunderground v.1.15,2013-03-28 22:07:00,
2013-03-28 18:13:00,57.2,23.5,30.01,NW,313,5.0,16.0,27,0.00,,,0.00,Wunderground v.1.15,2013-03-28 22:13:00,
2013-03-28 18:18:00,57.2,23.5,30.02,NW,325,6.0,16.0,27,0.00,,,0.00,Wunderground v.1.15,2013-03-28 22:18:00,
2013-03-28 18:23:00,57.2,23.5,30.02,NNW,327,5.0,16.0,27,0.00,,,0.00,Wunderground v.1.15,2013-03-28 22:23:00,
2013-03-28 18:29:00,57.0,23.3,30.03,NW,315,4.0,16.0,27,0.00,,,0.00,Wunderground v.1.15,2013-03-28 22:29:00,
2013-03-28 18:34:00,56.9,22.3,30.03,NW,312,3.0,16.0,26,0.00,,,0.00,Wunderground v.1.15,2013-03-28 22:34:00,
2013-03-28 18:40:00,56.7,23.0,30.03,NW,306,4.0,16.0,27,0.00,,,0.00,Wunderground v.1.15,2013-03-28 22:40:00,
2013-03-28 18:45:00,56.6,23.0,30.03,NNW,347,5.0,13.0,27,0.00,,,0.00,Wunderground v.1.15,2013-03-28 22:45:00,
2013-03-28 18:50:00,56.5,22.0,30.03,NW,320,4.0,13.0,26,0.00,,,0.00,Wunderground v.1.15,2013-03-28 22:50:00,
2013-03-28 18:56:00,56.3,22.7,30.03,NNW,332,4.0,13.0,27,0.00,,,0.00,Wunderground v.1.15,2013-03-28 22:56:00,
2013-03-28 19:01:00,56.3,23.6,30.03,NNW,327,4.0,13.0,28,0.00,,,0.00,Wunderground v.1.15,2013-03-28 23:01:00,
2013-03-28 19:07:00,56.0,22.4,30.03,NW,324,3.0,13.0,27,0.00,,,0.00,Wunderground v.1.15,2013-03-28 23:07:00,
2013-03-28 19:13:00,55.9,22.4,30.03,North,5,3.0,11.0,27,0.00,,,0.00,Wunderground v.1.15,2013-03-28 23:13:00,
2013-03-28 19:19:00,55.7,22.2,30.04,North,349,3.0,11.0,27,0.00,,,0.00,Wunderground v.1.15,2013-03-28 23:19:00,
2013-03-28 19:24:00,55.6,22.1,30.04,North,349,2.0,11.0,27,0.00,,,0.00,Wunderground v.1.15,2013-03-28 23:24:00,
2013-03-28 19:29:00,55.3,22.7,30.05,North,349,1.0,11.0,28,0.00,,,0.00,Wunderground v.1.15,2013-03-28 23:29:00,
2013-03-28 19:34:00,55.0,23.3,30.05,North,349,0.0,11.0,29,0.00,,,0.00,Wunderground v.1.15,2013-03-28 23:34:00,
2013-03-28 19:40:00,54.7,23.8,30.05,North,349,0.0,11.0,30,0.00,,,0.00,Wunderground v.1.15,2013-03-28 23:40:00,
2013-03-28 19:45:00,54.4,24.4,30.05,North,349,0.0,9.0,31,0.00,,,0.00,Wunderground v.1.15,2013-03-28 23:45:00,
2013-03-28 19:50:00,53.9,25.4,30.05,North,349,0.0,9.0,33,0.00,,,0.00,Wunderground v.1.15,2013-03-28 23:50:00,
2013-03-28 19:55:00,53.5,27.8,30.05,North,349,0.0,9.0,37,0.00,,,0.00,Wunderground v.1.15,2013-03-28 23:55:00,
2013-03-28 20:02:00,52.9,26.0,30.06,North,349,0.0,9.0,35,0.00,,,0.00,Wunderground v.1.15,2013-03-29 00:02:00,
2013-03-28 20:07:00,52.5,27.6,30.06,North,349,0.0,9.0,38,0.00,,,0.00,Wunderground v.1.15,2013-03-29 00:07:00,
2013-03-28 20:13:00,51.9,27.1,30.06,North,349,0.0,5.0,38,0.00,,,0.00,Wunderground v.1.15,2013-03-29 00:13:00,
2013-03-28 20:19:00,51.3,27.8,30.06,North,349,0.0,5.0,40,0.00,,,0.00,Wunderground v.1.15,2013-03-29 00:19:00,
2013-03-28 20:24:00,50.8,29.1,30.06,North,349,0.0,5.0,43,0.00,,,0.00,Wunderground v.1.15,2013-03-29 00:24:00,
2013-03-28 20:30:00,50.1,29.0,30.08,North,349,0.0,5.0,44,0.00,,,0.00,Wunderground v.1.15,2013-03-29 00:30:00,
2013-03-28 20:35:00,49.6,29.6,30.08,North,349,0.0,5.0,46,0.00,,,0.00,Wunderground v.1.15,2013-03-29 00:35:00,
2013-03-28 20:40:00,49.2,29.3,30.08,North,349,0.0,5.0,46,0.00,,,0.00,Wunderground v.1.15,2013-03-29 00:40:00,
2013-03-28 20:45:00,48.9,28.5,30.08,North,349,0.0,0.0,45,0.00,,,0.00,Wunderground v.1.15,2013-03-29 00:45:00,
2013-03-28 20:50:00,48.5,29.7,30.08,North,349,0.0,0.0,48,0.00,,,0.00,Wunderground v.1.15,2013-03-29 00:50:00,
2013-03-28 20:55:00,48.0,28.7,30.08,North,349,0.0,0.0,47,0.00,,,0.00,Wunderground v.1.15,2013-03-29 00:55:00,
2013-03-28 21:00:00,47.7,29.5,30.08,North,349,0.0,0.0,49,0.00,,,0.00,Wunderground v.1.15,2013-03-29 01:00:00,
2013-03-28 21:05:00,47.4,29.7,30.08,North,349,0.0,0.0,50,0.00,,,0.00,Wunderground v.1.15,2013-03-29 01:05:00,
2013-03-28 21:10:00,47.1,29.4,30.08,North,349,0.0,0.0,50,0.00,,,0.00,Wunderground v.1.15,2013-03-29 01:10:00,
2013-03-28 21:15:00,46.8,30.1,30.09,North,349,0.0,0.0,52,0.00,,,0.00,Wunderground v.1.15,2013-03-29 01:15:00,
2013-03-28 21:21:00,46.5,29.8,30.09,North,349,0.0,0.0,52,0.00,,,0.00,Wunderground v.1.15,2013-03-29 01:21:00,
2013-03-28 21:26:00,46.2,30.0,30.09,North,349,0.0,0.0,53,0.00,,,0.00,Wunderground v.1.15,2013-03-29 01:26:00,
2013-03-28 21:31:00,46.0,30.7,30.09,North,349,0.0,0.0,55,0.00,,,0.00,Wunderground v.1.15,2013-03-29 01:31:00,
2013-03-28 21:37:00,45.5,31.1,30.09,North,349,0.0,0.0,57,0.00,,,0.00,Wunderground v.1.15,2013-03-29 01:37:00,
2013-03-28 21:42:00,45.2,31.3,30.09,North,349,0.0,0.0,58,0.00,,,0.00,Wunderground v.1.15,2013-03-29 01:42:00,
2013-03-28 21:47:00,44.8,31.8,30.10,North,349,0.0,0.0,60,0.00,,,0.00,Wunderground v.1.15,2013-03-29 01:47:00,
2013-03-28 21:52:00,44.5,31.9,30.10,North,349,0.0,0.0,61,0.00,,,0.00,Wunderground v.1.15,2013-03-29 01:52:00,
2013-03-28 21:57:00,44.2,31.6,30.10,North,349,0.0,0.0,61,0.00,,,0.00,Wunderground v.1.15,2013-03-29 01:57:00,
2013-03-28 22:02:00,43.8,31.6,30.10,North,349,0.0,0.0,62,0.00,,,0.00,Wunderground v.1.15,2013-03-29 02:02:00,
2013-03-28 22:07:00,43.5,31.3,30.10,North,349,0.0,0.0,62,0.00,,,0.00,Wunderground v.1.15,2013-03-29 02:07:00,
2013-03-28 22:13:00,43.2,31.1,30.10,North,349,0.0,0.0,62,0.00,,,0.00,Wunderground v.1.15,2013-03-29 02:13:00,
2013-03-28 22:19:00,42.9,31.2,30.11,North,349,0.0,0.0,63,0.00,,,0.00,Wunderground v.1.15,2013-03-29 02:19:00,
2013-03-28 22:24:00,42.8,31.1,30.11,North,349,0.0,0.0,63,0.00,,,0.00,Wunderground v.1.15,2013-03-29 02:24:00,
2013-03-28 22:29:00,42.5,31.2,30.11,North,349,0.0,0.0,64,0.00,,,0.00,Wunderground v.1.15,2013-03-29 02:29:00,
2013-03-28 22:35:00,42.2,31.3,30.11,North,349,0.0,0.0,65,0.00,,,0.00,Wunderground v.1.15,2013-03-29 02:35:00,
2013-03-28 22:41:00,41.9,31.4,30.11,North,349,0.0,0.0,66,0.00,,,0.00,Wunderground v.1.15,2013-03-29 02:41:00,
2013-03-28 22:47:00,41.6,31.4,30.12,North,349,0.0,0.0,67,0.00,,,0.00,Wunderground v.1.15,2013-03-29 02:47:00,
2013-03-28 22:52:00,41.3,31.5,30.12,North,349,0.0,0.0,68,0.00,,,0.00,Wunderground v.1.15,2013-03-29 02:52:00,
2013-03-28 22:57:00,41.2,31.8,30.12,North,349,0.0,0.0,69,0.00,,,0.00,Wunderground v.1.15,2013-03-29 02:57:00,
2013-03-28 23:02:00,40.9,31.5,30.12,North,349,0.0,0.0,69,0.00,,,0.00,Wunderground v.1.15,2013-03-29 03:02:00,
2013-03-28 23:07:00,40.8,31.4,30.12,North,349,0.0,0.0,69,0.00,,,0.00,Wunderground v.1.15,2013-03-29 03:07:00,
2013-03-28 23:13:00,40.5,31.1,30.12,North,349,0.0,0.0,69,0.00,,,0.00,Wunderground v.1.15,2013-03-29 03:13:00,
2013-03-28 23:18:00,40.3,31.6,30.12,North,349,0.0,0.0,71,0.00,,,0.00,Wunderground v.1.15,2013-03-29 03:18:00,
2013-03-28 23:23:00,40.1,31.1,30.12,North,349,0.0,0.0,70,0.00,,,0.00,Wunderground v.1.15,2013-03-29 03:23:00,
2013-03-28 23:28:00,39.9,30.9,30.12,North,349,0.0,0.0,70,0.00,,,0.00,Wunderground v.1.15,2013-03-29 03:28:00,
2013-03-28 23:33:00,39.8,31.2,30.12,North,349,0.0,0.0,71,0.00,,,0.00,Wunderground v.1.15,2013-03-29 03:33:00,
2013-03-28 23:39:00,39.6,31.3,30.12,North,349,0.0,0.0,72,0.00,,,0.00,Wunderground v.1.15,2013-03-29 03:39:00,
2013-03-28 23:44:00,39.5,31.2,30.12,North,349,0.0,0.0,72,0.00,,,0.00,Wunderground v.1.15,2013-03-29 03:44:00,
2013-03-28 23:49:00,39.2,30.9,30.12,North,349,0.0,0.0,72,0.00,,,0.00,Wunderground v.1.15,2013-03-29 03:49:00,
2013-03-28 23:54:00,38.9,31.3,30.12,North,349,0.0,0.0,74,0.00,,,0.00,Wunderground v.1.15,2013-03-29 03:54:00,
2013-03-28 23:59:00,38.8,31.6,30.12,North,349,0.0,0.0,75,0.00,,,0.00,Wunderground v.1.15,2013-03-29 03:59:00,